GW3681 Weather Reports


time (UTC)temp
C
wind
direction
speed
KPH
gust
KPH
rain 1hr
cm
rain 24hr
cm
rain mn
cm
humidity
%
barometer
mb
20260507131104 19 269 4.8 12.9 0.00 0.00 0.00 58 1010.2
20260507130604 19 187 4.8 12.9 0.00 0.00 0.00 60 1010.5
20260507125604 19 219 3.2 9.7 0.00 0.00 0.00 60 1010.2
20260507125104 19 224 3.2 9.7 0.00 0.00 0.00 61 1010.5
20260507124605 18 139 4.8 12.9 0.00 0.00 0.00 61 1010.5
20260507124104 18 243 3.2 12.9 0.00 0.00 0.00 61 1010.5
20260507123104 18 145 3.2 11.3 0.00 0.00 0.00 61 1010.2
20260507122104 18 215 1.6 9.7 0.00 0.00 0.00 63 1010.5
20260507121604 18 245 4.8 12.9 0.00 0.00 0.00 64 1010.5
20260507121104 18 276 4.8 12.9 0.00 0.00 0.00 64 1010.5
20260507120104 18 278 3.2 9.7 0.00 0.00 0.00 65 1010.8
20260507115604 18 169 3.2 9.7 0.00 0.00 0.00 64 1010.8
20260507115104 18 238 1.6 8.0 0.00 0.00 0.00 65 1010.8
20260507114603 18 215 3.2 4.8 0.00 0.00 0.00 64 1010.8
20260507113604 18 265 3.2 9.7 0.00 0.00 0.00 64 1011.2
20260507113104 18 249 4.8 11.3 0.00 0.00 0.00 64 1010.8
20260507112604 18 243 4.8 11.3 0.00 0.00 0.00 64 1010.8
20260507112104 18 209 3.2 8.0 0.00 0.00 0.00 65 1010.8
20260507111605 18 233 1.6 8.0 0.00 0.00 0.00 64 1010.5
20260507111103 18 219 3.2 9.7 0.00 0.00 0.00 65 1010.8
20260507110604 18 198 4.8 9.7 0.00 0.00 0.00 65 1010.8
20260507105604 17 237 3.2 9.7 0.00 0.00 0.00 67 1010.5
20260507105104 17 254 4.8 9.7 0.00 0.00 0.00 67 1010.8
20260507104603 18 299 1.6 9.7 0.00 0.00 0.00 67 1010.8
20260507104104 18 231 3.2 9.7 0.00 0.00 0.00 66 1010.5
20260507103103 17 252 1.6 4.8 0.00 0.00 0.00 67 1010.8
20260507102604 17 348 1.6 8.0 0.00 0.00 0.00 68 1010.5
20260507101104 17 290 1.6 4.8 0.00 0.00 0.00 69 1010.5
20260507100604 17 213 1.6 4.8 0.00 0.00 0.00 70 1010.8
20260507095603 17 234 4.8 9.7 0.00 0.00 0.00 70 1010.5
20260507095104 17 171 4.8 4.8 0.00 0.00 0.00 69 1010.5
20260507094603 17 199 3.2 3.2 0.00 0.00 0.00 71 1010.5
20260507094103 16 250 0.0 4.8 0.00 0.00 0.00 71 1010.5
20260507093604 16 266 1.6 4.8 0.00 0.00 0.00 71 1010.5
20260507093104 16 333 0.0 8.0 0.00 0.00 0.00 71 1010.8
20260507092604 16 344 4.8 8.0 0.00 0.00 0.00 72 1010.5
20260507092104 16 356 0.0 4.8 0.00 0.00 0.00 72 1010.5
20260507091604 16 301 1.6 4.8 0.00 0.00 0.00 73 1010.5
20260507091103 16 220 1.6 3.2 0.00 0.00 0.00 72 1010.5
20260507090604 16 337 0.0 4.8 0.00 0.00 0.00 73 1010.8
20260507090104 16 163 1.6 4.8 0.00 0.00 0.00 73 1010.5
20260507085604 16 178 3.2 3.2 0.00 0.00 0.00 73 1010.5
20260507085104 16 208 1.6 3.2 0.00 0.00 0.00 74 1010.2
20260507084604 16 226 0.0 4.8 0.00 0.00 0.00 73 1010.5
20260507084103 15 186 1.6 8.0 0.00 0.00 0.00 75 1010.2
20260507083604 16 234 4.8 8.0 0.00 0.00 0.00 74 1010.2
20260507083104 15 170 3.2 4.8 0.00 0.00 0.00 74 1010.2
20260507082604 16 194 1.6 3.2 0.00 0.00 0.00 73 1010.2
20260507081103 15 0 0.0 1.6 0.00 0.00 0.00 75 1009.8
20260507080604 15 0 0.0 8.0 0.00 0.00 0.00 75 1009.8
20260507080104 14 23 4.8 8.0 0.00 0.00 0.00 75 1009.8
20260507075604 14 33 1.6 9.7 0.00 0.00 0.00 74 1009.8
20260507075104 14 7 3.2 9.7 0.00 0.00 0.00 74 1009.8
20260507074604 14 358 1.6 4.8 0.00 0.00 0.00 73 1009.8
20260507074104 14 348 3.2 4.8 0.00 0.00 0.00 73 1009.5
20260507073603 13 4 1.6 4.8 0.00 0.00 0.00 73 1009.5
20260507073104 13 9 1.6 4.8 0.00 0.00 0.00 73 1009.8
20260507072604 13 351 1.6 4.8 0.00 0.00 0.00 74 1009.8
20260507072104 13 358 1.6 12.9 0.00 0.00 0.00 74 1009.5
20260507071604 12 10 8.0 12.9 0.00 0.00 0.00 74 1009.5
20260507070604 12 2 3.2 11.3 0.00 0.00 0.00 75 1009.5
20260507065603 12 340 3.2 11.3 0.00 0.00 0.00 75 1009.5
20260507065104 12 9 3.2 11.3 0.00 0.00 0.00 76 1009.5
20260507064604 12 358 1.6 8.0 0.00 0.00 0.00 76 1009.5
20260507064104 12 337 3.2 8.0 0.00 0.00 0.00 77 1009.2
20260507063605 11 351 4.8 8.0 0.00 0.00 0.00 77 1009.1
20260507063104 11 358 1.6 8.0 0.00 0.00 0.00 77 1009.1
20260507062605 11 7 0.0 8.0 0.00 0.00 0.00 77 1009.1
20260507062103 11 23 3.2 8.0 0.00 0.00 0.00 77 1009.1
20260507061104 11 2 3.2 8.0 0.00 0.00 0.00 77 1009.0
20260507060604 11 356 3.2 8.0 0.00 0.00 0.00 77 1008.9
20260507060104 11 357 4.8 8.0 0.00 0.00 0.00 77 1009.1
20260507055604 11 5 4.8 8.0 0.00 0.00 0.00 78 1008.8
20260507055103 11 17 3.2 8.0 0.00 0.00 0.00 78 1008.8
20260507054604 11 22 3.2 8.0 0.00 0.00 0.00 78 1008.8
20260507054103 11 348 3.2 8.0 0.00 0.00 0.00 78 1009.1
20260507053603 11 14 3.2 8.0 0.00 0.00 0.00 78 1008.8
20260507052604 11 335 1.6 8.0 0.00 0.00 0.00 77 1009.1
20260507052104 11 8 3.2 8.0 0.00 0.00 0.00 77 1008.8
20260507051604 11 21 3.2 9.7 0.00 0.00 0.00 77 1008.8
20260507051103 11 2 4.8 9.7 0.00 0.00 0.00 76 1008.8
20260507050604 11 22 4.8 9.7 0.00 0.00 0.00 76 1008.8
20260507050105 11 359 4.8 8.0 0.00 0.00 0.00 77 1008.8
20260507045603 11 2 4.8 8.0 0.00 0.00 0.00 77 1008.5
20260507045103 11 8 3.2 8.0 0.00 0.00 0.00 77 1008.8
20260507044604 11 29 3.2 4.8 0.00 0.00 0.00 77 1008.8
20260507044104 11 345 3.2 4.8 0.00 0.00 0.00 76 1008.5
20260507043604 11 352 3.2 8.0 0.00 0.00 0.00 76 1008.8
20260507043104 11 357 3.2 9.7 0.00 0.00 0.00 76 1008.5
20260507042603 11 4 4.8 9.7 0.00 0.00 0.00 77 1008.5
20260507042104 11 341 3.2 8.0 0.00 0.00 0.00 76 1008.5
20260507041604 11 2 1.6 8.0 0.00 0.00 0.00 76 1008.8
20260507041104 11 32 3.2 8.0 0.00 0.00 0.00 76 1008.5
20260507040604 11 2 1.6 3.2 0.00 0.00 0.00 76 1008.5
20260507040104 11 13 1.6 4.8 0.00 0.00 0.00 76 1008.5
20260507035604 11 14 3.2 9.7 0.00 0.00 0.00 76 1008.5
20260507035103 11 12 4.8 9.7 0.00 0.00 0.00 76 1008.5
20260507034604 11 5 3.2 11.3 0.00 0.00 0.00 76 1008.5
20260507034103 11 8 1.6 11.3 0.00 0.00 0.00 76 1008.5
20260507033603 11 348 4.8 8.0 0.00 0.00 0.00 77 1008.5
20260507033104 11 355 4.8 8.0 0.00 0.00 0.00 77 1008.1
20260507032604 11 346 3.2 4.8 0.00 0.00 0.00 77 1008.5
20260507032104 11 1 3.2 8.0 0.00 0.00 0.00 77 1008.5
20260507031605 11 12 1.6 8.0 0.00 0.00 0.00 77 1008.1
20260507030604 12 16 0.0 4.8 0.00 0.00 0.00 76 1008.1
20260507030104 12 53 1.6 3.2 0.00 0.00 0.00 76 1008.1
20260507025604 12 12 1.6 4.8 0.00 0.00 0.00 76 1008.1
20260507025104 12 2 1.6 9.7 0.00 0.00 0.00 76 1008.1
20260507024604 12 13 4.8 11.3 0.00 0.00 0.00 76 1008.1
20260507023604 12 8 1.6 9.7 0.00 0.00 0.00 75 1008.1
20260507023104 12 2 4.8 11.3 0.00 0.00 0.00 75 1008.1
20260507022603 12 14 3.2 11.3 0.00 0.00 0.00 75 1008.1
20260507022103 12 8 4.8 9.7 0.00 0.00 0.00 75 1007.8
20260507020104 12 0 4.8 9.7 0.00 0.00 0.00 75 1007.8
20260507015604 13 11 4.8 9.7 0.00 0.00 0.00 75 1008.1
20260507014604 13 0 3.2 8.0 0.00 0.00 0.00 75 1008.1
20260507014104 13 2 1.6 8.0 0.00 0.00 0.00 75 1008.5
20260507013603 13 8 3.2 8.0 0.00 0.00 0.00 75 1008.1
20260507013104 13 9 4.8 8.0 0.00 0.00 0.00 75 1008.5
20260507012604 13 4 4.8 9.7 0.00 0.00 0.00 74 1008.5
20260507012103 13 14 3.2 9.7 0.00 0.00 0.00 74 1008.5
20260507011605 13 6 4.8 8.0 0.00 0.00 0.00 74 1008.5
20260507011104 13 356 1.6 4.8 0.00 0.00 0.00 73 1008.5
20260507010603 13 7 1.6 4.8 0.00 0.00 0.00 73 1008.5
20260507010104 14 15 1.6 8.0 0.00 0.00 0.00 73 1008.8
20260507005604 14 358 1.6 8.0 0.00 0.00 0.00 72 1008.5
20260507005104 14 354 1.6 4.8 0.00 0.00 0.00 72 1008.5
20260507004603 14 337 3.2 4.8 0.00 0.00 0.00 73 1008.7
20260507004104 14 340 3.2 4.8 0.00 0.00 0.00 72 1008.6
20260507003604 14 353 3.2 4.8 0.00 0.00 0.00 72 1008.7
20260507003104 14 6 1.6 4.8 0.00 0.00 0.00 72 1008.8
20260507002104 15 343 1.6 8.0 0.00 0.00 0.00 71 1008.8
20260507001603 15 0 1.6 8.0 0.00 0.00 0.00 71 1008.9
20260507000604 15 355 1.6 9.7 0.00 0.00 0.00 71 1009.1
20260507000104 15 330 1.6 9.7 0.00 0.00 0.00 71 1008.8
20260506235603 15 358 1.6 8.0 0.00 0.00 0.00 71 1009.1
20260506234604 15 348 3.2 4.8 0.00 0.00 0.00 71 1008.8
20260506234104 15 354 3.2 4.8 0.00 0.00 0.00 70 1009.1
20260506233604 15 335 1.6 4.8 0.00 0.00 0.00 71 1008.8
20260506233104 15 349 3.2 3.2 0.00 0.00 0.00 72 1008.8
20260506232604 15 339 0.0 4.8 0.00 0.00 0.00 72 1009.1
20260506232104 15 346 1.6 4.8 0.00 0.00 0.00 73 1009.5
20260506231603 15 342 0.0 4.8 0.00 0.00 0.00 73 1009.5
20260506230603 15 1 1.6 3.2 0.00 0.00 0.00 73 1009.5
20260506225604 15 0 1.6 4.8 0.00 0.00 0.00 74 1009.5
20260506225104 15 353 1.6 8.0 0.00 0.00 0.00 74 1009.5
20260506224603 15 341 3.2 8.0 0.00 0.00 0.00 74 1009.5
20260506224104 15 351 3.2 8.0 0.00 0.00 0.00 74 1009.5
20260506223604 16 347 1.6 4.8 0.00 0.00 0.00 75 1009.5
20260506223104 16 359 3.2 4.8 0.00 0.00 0.00 75 1009.5
20260506222604 16 351 1.6 4.8 0.00 0.00 0.00 76 1009.5
20260506222104 16 352 0.0 3.2 0.00 0.00 0.00 77 1009.5
20260506221604 16 352 0.0 1.6 0.00 0.00 0.00 78 1009.5
20260506221104 16 335 0.0 1.6 0.00 0.00 0.00 80 1009.5
20260506220104 16 343 0.0 0.0 0.00 0.00 0.00 81 1009.5
20260506215604 16 339 0.0 0.0 0.00 0.00 0.00 81 1009.5
20260506214604 16 299 0.0 1.6 0.00 0.00 0.00 81 1009.5
20260506214103 16 303 0.0 3.2 0.00 0.00 0.00 80 1009.5
20260506213104 17 316 0.0 0.0 0.00 0.00 0.00 80 1009.5
20260506212604 17 339 0.0 3.2 0.00 0.00 0.00 80 1009.5
20260506211604 17 305 0.0 3.2 0.00 0.00 0.00 80 1009.5
20260506211104 17 255 0.0 3.2 0.00 0.00 0.00 79 1009.5
20260506210604 17 226 0.0 1.6 0.00 0.00 0.00 79 1009.1
20260506210104 17 207 1.6 1.6 0.00 0.00 0.00 79 1009.1
20260506205104 17 244 0.0 1.6 0.00 0.00 0.00 79 1008.8
20260506204604 17 340 0.0 1.6 0.00 0.00 0.00 79 1008.8
20260506203604 17 255 0.0 1.6 0.00 0.00 0.00 78 1008.8
20260506203104 17 303 0.0 0.0 0.00 0.00 0.00 78 1008.8
20260506202103 17 326 0.0 3.2 0.00 0.00 0.00 78 1008.5
20260506201604 17 207 0.0 3.2 0.00 0.00 0.00 78 1008.5
20260506201104 17 340 0.0 3.2 0.00 0.00 0.00 77 1008.8
20260506200105 17 267 0.0 8.0 0.00 0.00 0.00 77 1008.8
20260506195604 17 253 0.0 8.0 0.00 0.00 0.00 77 1008.5
20260506195104 17 272 0.0 1.6 0.00 0.00 0.00 77 1008.5
20260506194104 17 285 1.6 9.7 0.00 0.00 0.00 77 1008.5
20260506193603 17 241 1.6 9.7 0.00 0.00 0.00 76 1008.5
20260506192603 17 329 1.6 4.8 0.00 0.00 0.00 76 1008.5
20260506192104 17 284 3.2 4.8 0.00 0.00 0.00 76 1008.5
20260506191603 17 258 1.6 4.8 0.00 0.00 0.00 75 1008.5
20260506191104 17 300 1.6 11.3 0.00 0.00 0.00 75 1008.7
20260506190606 17 243 3.2 11.3 0.00 0.00 0.00 75 1008.6
20260506190104 17 231 3.2 8.0 0.00 0.00 0.00 74 1008.5
20260506185603 17 234 1.6 9.7 0.00 0.00 0.00 74 1008.5
20260506185103 17 241 1.6 9.7 0.00 0.00 0.00 73 1008.5
20260506184604 17 198 1.6 11.3 0.00 0.00 0.00 71 1008.5
20260506184104 18 171 4.8 14.5 0.00 0.00 0.00 70 1008.5
20260506183604 18 238 4.8 14.5 0.00 0.00 0.00 69 1008.5
20260506183104 18 259 4.8 12.9 0.00 0.00 0.00 67 1008.5
20260506182604 18 220 4.8 12.9 0.00 0.00 0.00 67 1008.5
20260506181604 18 215 4.8 16.1 0.00 0.00 0.00 67 1008.5
20260506181104 18 232 4.8 9.7 0.00 0.00 0.00 66 1008.8
20260506180604 18 135 4.8 11.3 0.00 0.00 0.00 65 1008.5
20260506180104 18 277 4.8 12.9 0.00 0.00 0.00 65 1008.8
20260506175604 18 175 6.4 12.9 0.00 0.00 0.00 64 1008.8
20260506175103 18 225 4.8 11.3 0.00 0.00 0.00 64 1008.8
20260506174604 18 248 6.4 11.3 0.00 0.00 0.00 65 1008.5
20260506174103 18 269 4.8 11.3 0.00 0.00 0.00 64 1008.5
20260506173604 19 220 4.8 9.7 0.00 0.00 0.00 64 1008.8
20260506173104 18 314 3.2 9.7 0.00 0.00 0.00 64 1008.8
20260506172604 19 232 1.6 11.3 0.00 0.00 0.00 65 1009.1
20260506172104 19 255 3.2 12.9 0.00 0.00 0.00 65 1008.8
20260506170604 19 256 3.2 12.9 0.00 0.00 0.00 64 1009.1
20260506170105 19 266 8.0 12.9 0.00 0.00 0.00 63 1009.1
20260506165604 19 259 4.8 12.9 0.00 0.00 0.00 62 1009.1
20260506165104 20 221 4.8 11.3 0.00 0.00 0.00 61 1009.5
20260506164604 20 212 3.2 14.5 0.00 0.00 0.00 62 1009.5
20260506164104 19 254 8.0 14.5 0.00 0.00 0.00 62 1008.8
20260506163604 20 225 4.8 12.9 0.00 0.00 0.00 62 1009.1
20260506162604 20 162 4.8 11.3 0.00 0.00 0.00 62 1009.1
20260506161604 20 275 3.2 12.9 0.00 0.00 0.00 60 1009.5
20260506161104 20 313 3.2 12.9 0.00 0.00 0.00 62 1009.1
20260506160604 20 262 4.8 12.9 0.00 0.00 0.00 62 1009.1
20260506160103 20 268 3.2 11.3 0.00 0.00 0.00 62 1009.5
20260506155604 20 263 3.2 11.3 0.00 0.00 0.00 62 1009.5
20260506155103 20 248 8.0 12.9 0.00 0.00 0.00 63 1009.5
20260506154604 20 72 4.8 12.9 0.00 0.00 0.00 63 1009.5
20260506154104 20 232 1.6 9.7 0.00 0.00 0.00 62 1009.5
20260506153605 20 311 3.2 16.1 0.00 0.00 0.00 63 1009.5
20260506153104 20 222 8.0 16.1 0.00 0.00 0.00 63 1009.8
20260506152604 20 178 3.2 14.5 0.00 0.00 0.00 62 1009.5
20260506152104 20 244 4.8 14.5 0.00 0.00 0.00 64 1009.5
20260506151604 20 234 3.2 14.5 0.00 0.00 0.00 64 1009.8
20260506151103 19 260 8.0 12.9 0.00 0.00 0.00 64 1009.8
20260506150603 20 289 4.8 12.9 0.00 0.00 0.00 66 1009.8
20260506150104 20 195 4.8 12.9 0.00 0.00 0.00 64 1009.8
20260506145603 20 336 3.2 11.3 0.00 0.00 0.00 65 1009.8
20260506145104 20 284 3.2 11.3 0.00 0.00 0.00 65 1010.2
20260506144604 20 166 4.8 11.3 0.00 0.00 0.00 64 1010.2
20260506143104 20 216 8.0 12.9 0.00 0.00 0.00 64 1010.2
20260506142604 20 186 4.8 12.9 0.00 0.00 0.00 64 1010.2
20260506141604 21 267 3.2 11.3 0.00 0.00 0.00 63 1010.2
20260506141104 20 264 1.6 11.3 0.00 0.00 0.00 64 1010.5
20260506140105 20 198 4.8 9.7 0.00 0.00 0.00 60 1010.5
20260506135604 20 279 3.2 9.7 0.00 0.00 0.00 61 1010.5
20260506135104 21 188 4.8 9.7 0.00 0.00 0.00 58 1010.5
20260506134603 21 258 3.2 11.3 0.00 0.00 0.00 59 1010.5
20260506134104 20 236 4.8 11.3 0.00 0.00 0.00 59 1010.8
20260506133604 20 223 3.2 9.7 0.00 0.00 0.00 60 1010.8
20260506133104 21 226 3.2 11.3 0.00 0.00 0.00 59 1010.8
20260506132604 21 253 3.2 11.3 0.00 0.00 0.00 59 1010.8
20260506132104 21 229 3.2 9.7 0.00 0.00 0.00 57 1010.8
20260506131605 21 187 1.6 8.0 0.00 0.00 0.00 57 1010.8